Overview Statistics Trail Chart Weather Telemetry Raw packets
 

This is the latest recevied weather packets stored in our database for station/object K1RFS. If no packets are shown the sender has not sent any weather packets the latest 10 day(s).

<< 92 93 94 95 96 97 98 >>
Time Temp. Humidity Pressure Rain* Wind** Luminosity Snow
1788011297 16.67° C 86% 1004.4 hPa 0 mm - 22 W/m² -
1788010995 16.67° C 87% 1004.4 hPa 0 mm - 11 W/m² -
1788010691 16.67° C 88% 1004.4 hPa 0 mm - 18 W/m² -
1788010390 16.67° C 88% 1004 hPa 0 mm - 18 W/m² -
1788010090 16.67° C 88% 1003.9 hPa 0 mm - 13 W/m² -
1788009785 16.67° C 88% 1003.8 hPa 0 mm - 11 W/m² -
1788009484 16.67° C 88% 1003.8 hPa 0 mm - 8 W/m² -
1788009178 16.67° C 88% 1003.9 hPa 0 mm - 7 W/m² -
1788008873 17.22° C 87% 1004 hPa 0 mm - 7 W/m² -
1788008568 17.22° C 86% 1004.1 hPa 0 mm - 4 W/m² -
1788008266 17.22° C 86% 1004.2 hPa 0 mm - 2 W/m² -
1788007964 17.22° C 86% 1004.5 hPa 0 mm - 1 W/m² -
1788007663 17.22° C 87% 1004.1 hPa 0 mm - 0 W/m² -
1788007358 17.22° C 88% 1004.2 hPa 0 mm - 0 W/m² -
1788007053 17.22° C 89% 1004.4 hPa 0 mm - 0 W/m² -
1788006751 17.22° C 89% 1004.4 hPa 0 mm - 0 W/m² -
1788006447 17.22° C 89% 1004.5 hPa 0 mm - 0 W/m² -
1788006147 16.67° C 88% 1004.7 hPa 0 mm - 0 W/m² -
1788005846 17.22° C 88% 1004.7 hPa 0 mm - 0 W/m² -
1788005541 17.22° C 88% 1004.9 hPa 0 mm - 0 W/m² -
1788005240 17.22° C 88% 1004.9 hPa 0 mm - 0 W/m² -
1788004939 17.22° C 89% 1005 hPa 0 mm - 0 W/m² -
1788004638 17.22° C 88% 1005.3 hPa 0 mm - 0 W/m² -
1788004345 17.22° C 88% 1005.4 hPa 0 mm - 0 W/m² -
1788004033 17.22° C 87% 1005.3 hPa 0 mm - 0 W/m² -

* Rain latest hour (hover to see other rain measurements)
** Current wind speed in m/s (hover to see current wind gust speed)